Welcome to the New NWS' Forecast!
Most changes are behind the scenes, but click here for differences you might notice.
Latest weather observations around

Jonesboro, Jonesboro Municipal Airport (KJBR)

Using English Units (Switch to International System of Units)
Date/ Time (CDT) Wind (mph) Vis. (mi) Weather Sky Cond. Temp (°F) Rel. Humidity Wind Chill (°F) Heat Index (°F) Pressure Precip. (in)
Air Dwpt 6 hour Altimeter (inHg) Sea level (inHg) 1 hr 3 hr 6 hr
Max Min
Jun 25 00:53 Calm 10 Clear CLR 66 60     81%     30.19 30.18      
Jun 24 23:53 Calm 10 Clear CLR 65 61     87%     30.19 30.18      
Jun 24 22:53 N 3 10 Clear CLR 71 56     59%   71 30.17 30.16      
Jun 24 21:53 N 6 10 Clear CLR 71 57     61%   71 30.16 30.16      
Jun 24 20:53 N 5 10 Clear CLR 73 58     59%   73 30.15 30.14      
Jun 24 19:53 Calm 10 Clear CLR 77 61     58%   77 30.13 30.12      
Jun 24 18:53 3 10 Clear CLR 80 59     49%   81 30.11 30.1      
Jun 24 17:53 5 10 Partly Cloudy SCT055 82 59     46%   82 30.09 30.08      
Jun 24 16:53 9 10 Mostly Clear FEW050 82 60     47%   82 30.1 30.09      
Jun 24 15:53 N 11 10 Clear CLR 81 60     49%   82 30.1 30.09      
Jun 24 14:53 N 10 10 Clear CLR 80 59     49%   81 30.12 30.11      
Jun 24 13:53 NW 10 10 Clear CLR 79 60     52%   79 30.13 30.12      
Jun 24 12:53 8 10 Clear CLR 78 62     58%   78 30.13 30.13      
Jun 24 11:53 8 10 Clear CLR 77 62     60%   77 30.13 30.12      
Jun 24 10:53 7 10 Clear CLR 75 62     64%   75 30.12 30.11      
Jun 24 09:53 N 5 10 Clear CLR 73 62     68%   73 30.12 30.11      
Jun 24 08:53 N 5 10 Clear CLR 73 63     71%   73 30.11 30.1      
Jun 24 07:53 N 7 10 Clear CLR 71 61     70%   71 30.09 30.09      
Jun 24 06:53 8 10 Clear   69 61     75%     30.06 30.05      
Jun 24 05:53 N 6 10 Clear CLR 68 61     78%     30.05 30.04      
Jun 24 04:53 N 8 10 Clear CLR 69 62     78%     30.02 30.01      
Jun 24 02:53 NW 6 10 Clear CLR 70 65     84%     29.97 29.96      
Jun 24 01:53 8 10 Clear CLR 71 66     84%   72 29.97 29.95      
Jun 24 00:53 NW 6 10 Clear CLR 71 68     90%   72 29.96 29.95      
Jun 23 23:53 NW 6 10 Clear CLR 72 70     93%   73 29.95 29.93      
Jun 23 22:53 NW 7 10 Clear CLR 75 71     88%   76 29.93 29.93      
Jun 23 21:53 6 10 Clear CLR 73 72     96%   75 29.92 29.91      
Jun 23 20:53 6 10 Clear CLR 73 72     96%   75 29.89 29.88      
Jun 23 19:53 W 6 10 Clear CLR 74 72     94%   75 29.87 29.86      
Jun 23 17:53 3 8 Light Rain SCT110 72 72     100%   74 29.83 29.82      
Jun 23 17:51 Calm 9 Light Rain SCT110 72 72     100%   73 29.83        
Jun 23 16:53   10 Light Rain SCT012 BKN042 OVC060 73 69     87%   74 29.82 29.81 0    
Jun 23 15:53 W 10 10 Partly Cloudy SCT034 90 76     64%   102 29.75 29.74   0  
Jun 23 14:53 W 14 10 Partly Cloudy SCT028 88 76     68%   99 29.76 29.74      
Jun 23 14:37 W 10 10 Partly Cloudy SCT026 88 76     68%   99 29.74        
Jun 23 14:10 W 14 10 Mostly Cloudy BKN026 86 76     72%   96 29.73        
Jun 23 13:53 W 13 10 Mostly Clear FEW021 85 76     75%   94 29.73 29.72 0    
Jun 23 12:53 13 10 Light Rain FEW016 SCT029 SCT055 83 77     82%   92 29.72 29.71 0   0
Jun 23 12:35 W 11 10 Mostly Cloudy SCT017 SCT022 BKN031 83 77     82%   92 29.74        
Jun 23 12:15 W 9 10 Cloudy BKN016 BKN023 OVC040 81 76     85%   87 29.73        
Jun 23 12:00 W 11 10 Mostly Cloudy SCT016 SCT022 BKN031 82 76     82%   89 29.72        
Jun 23 11:53 W 11 10 Mostly Cloudy BKN014 BKN046 83 77     82%   92 29.72 29.71      
Jun 23 11:25 11 10 Mostly Cloudy SCT014 SCT022 BKN033 81 76     85%   87 29.71        
Jun 23 11:08 NW 9 10 Cloudy SCT012 BKN024 OVC032 80 76     87%   85 29.7        
Jun 23 10:53 7 10 Cloudy BKN011 BKN017 OVC026 79 76     90%   83 29.69 29.68      
Jun 23 09:53 NW 6 7 Cloudy BKN007 OVC011 76 75     97%   78 29.66 29.65 0 0  
Jun 23 09:50 NW 7 7 Cloudy BKN007 OVC011 75 75     100%   77 29.66   0    
Jun 23 08:53 N 5 10 Cloudy OVC010 76 75     97%   78 29.63 29.62 0    
Jun 23 08:42 N 7 10 Cloudy SCT006 OVC010 76 75     97%   78 29.62   0    
Jun 23 08:16 NE 7 7 Cloudy BKN006 OVC012 75 75     100%   77 29.62   0    
Jun 23 08:06 7 8 Cloudy SCT008 OVC013 75 75     100%   77 29.62   0    
Jun 23 07:53 NE 7 8 Cloudy BKN008 OVC011 75 75     100%   77 29.61 29.6 0    
Jun 23 06:53 10 4 Rain and Fog/Mist OVC006 75 75     100%   77 29.62 29.6 0   0
Jun 23 06:30 10 3 Heavy Rain and Fog/Mist BKN006 OVC013 75 75     100%   77 29.62   0    
Jun 23 06:07 13 2 Heavy Rain and Fog/Mist BKN008 BKN015 OVC020 75 74     96%   77 29.63   0    
Jun 23 05:53 13 6 Rain and Fog/Mist OVC008 75 74     96%   77 29.63 29.62 0    
Jun 23 05:05 3 3 Heavy Rain and Fog/Mist BKN006 OVC014 74 74     100%   76 29.64   0    
Jun 23 04:57 8 3 Rain and Fog/Mist FEW006 BKN015 OVC022 74 74     100%   76 29.64   0    
Jun 23 04:51 E 3 2 Heavy Rain and Fog/Mist FEW006 SCT011 OVC018 74 74     100%   76 29.64 29.63 0    
Jun 23 04:50 Calm 2 Heavy Rain and Fog/Mist FEW006 SCT011 OVC018 73 73     100%   75 29.64   0    
Jun 23 04:39 6 3 Rain and Fog/Mist BKN018 OVC024 74 74     100%   76 29.65   0    
Jun 23 04:12 9 1.75 Heavy Rain and Fog/Mist FEW015 BKN020 OVC050 76 74     94%   78 29.66   0    
Jun 23 04:08 9 3 Heavy Rain and Fog/Mist FEW018 BKN024 OVC050 76 74     94%   78 29.67   0    
Jun 23 03:53 8 10 Light Rain SCT024 SCT040 OVC050 77 73     88%   79 29.67 29.65 0 0  
Jun 23 02:53 SSE 11 10 Light Rain BKN022 OVC055 78 75     90%   80 29.7 29.68 0    
Jun 23 02:38 SSE 8 10 Light Rain BKN022 OVC033 78 75     90%   80 29.7   0    
Jun 23 02:01 SSE 9 10 Light Rain FEW024 BKN035 OVC055 78 75     90%   80 29.7   0    
Jun 23 01:53 S 13 10 Light Rain SCT022 BKN029 OVC034 78 75     90%   80 29.7 29.69 0    
Jun 23 00:53 9 10 Cloudy FEW018 BKN022 OVC039 78 76     93%   80 29.71 29.69     0
Jun 23 00:45 9 10 Mostly Cloudy BKN021 BKN028 BKN039 78 76     93%   80 29.71        
Jun 22 23:53 10 10 Cloudy FEW035 OVC060 78 77     96%   81 29.72 29.71 0    
Jun 22 22:53 8 10 Cloudy BKN050 OVC065 78 77     96%   81 29.74 29.73 0    
Jun 22 21:53 E 7 10 Light Rain FEW032 BKN065 OVC080 77 76     96%   79 29.74 29.72 0 0  
Jun 22 20:53 E 7 9 Light Rain FEW048 SCT070 BKN090 77 75     94%   79 29.73 29.72 0    
Jun 22 19:53 SSE 8 10 Light Rain FEW008 SCT060 BKN110 77 76     96%   79 29.74 29.73 0    
Jun 22 18:53 5 10 Light Rain FEW055 SCT095 BKN110 81 78     91%   89 29.72 29.7 0   0
Jun 22 17:53 3 10 Clear CLR 82 77     85%   90 29.72 29.71      
Jun 22 16:53 S 7 10 Clear CLR 82 78     88%   91 29.73 29.72 0    
Jun 22 15:53 S 13 10 Partly Cloudy FEW034 SCT080 88 74     63%   97 29.74 29.73      
Jun 22 14:53 13 10 Mostly Cloudy SCT027 BKN035 BKN049 87 76     70%   98 29.74 29.73      
Jun 22 14:29 11 10 Mostly Cloudy SCT027 BKN039 89 76     65%   100 29.75        
Jun 22 14:17 13 10 Mostly Cloudy BKN027 BKN038 87 76     70%   98 29.76        
Jun 22 13:53 10 10 Mostly Cloudy SCT023 BKN034 BKN045 86 76     72%   96 29.77 29.75      
Jun 22 12:53 SSE 13 10 Mostly Cloudy BKN018 BKN024 83 76     79%   91 29.79 29.78     0
Jun 22 12:09 SSE 9 10 Cloudy SCT013 BKN020 OVC046 81 76     85%   87 29.82        
Jun 22 11:53 SSE 11 10 Cloudy BKN012 BKN020 OVC045 81 76     85%   87 29.82 29.81 0    
Jun 22 11:43 SSE 9 10 Cloudy SCT009 BKN014 OVC020 80 77     90%   86 29.83   0    
Jun 22 11:28 6 10 Cloudy BKN010 BKN016 OVC020 78 76     93%   80 29.83   0    
Jun 22 11:01 10 8 Light Rain BKN008 BKN016 OVC029 77 76     96%   79 29.84   0    
Jun 22 10:53 10 7 Light Rain SCT010 BKN020 OVC029 78 76     93%   80 29.84 29.83 0    
Jun 22 10:41 SSE 11 9 Light Rain FEW008 SCT013 OVC029 78 76     93%   80 29.84   0    
Jun 22 10:34 SSE 10 8 Light Rain BKN011 BKN017 OVC029 78 76     93%   80 29.84   0    
Jun 22 09:53 10 10 Cloudy SCT014 OVC020 78 74     87%   80 29.84 29.83 0 0  
Jun 22 08:53 8 7 Light Rain BKN015 OVC021 77 74     90%   79 29.86 29.85 0    
Jun 22 07:53 10 10 Cloudy OVC016 77 72     84%   78 29.86 29.84      
Jun 22 06:53 E 9 10 Cloudy OVC017 77 71     82%   78 29.85 29.83      
Jun 22 05:53 E 9 10 Cloudy OVC025 77 71     82%   78 29.85 29.84      
Jun 22 04:53 E 8 10 Cloudy OVC021 77 71     82%   78 29.86 29.85      
Jun 22 03:53 E 9 10 Cloudy OVC020 77 71     82%   78 29.86 29.85      
Jun 22 02:53 E 7 10 Cloudy BKN021 OVC025 77 71     82%   78 29.87 29.86      
Jun 22 01:53 8 10 Cloudy OVC021 77 71     82%   78 29.89 29.88      
Jun 22 00:53 8 10 Cloudy OVC023 78 71     79%   79 29.9 29.88      
Jun 21 23:53 8 10 Cloudy OVC028 78 70     76%   79 29.9 29.89      
Jun 21 23:51 11 10 Cloudy OVC028 79 70     74%   80 29.9        
Jun 21 22:53 7 10 Mostly Cloudy BKN032 78 71     79%   79 29.92 29.9      
Jun 21 21:53 9 10 Clear CLR 79 70     74%   82 29.92 29.91      
Jun 21 20:53 6 10 Clear CLR 80 71     74%   84 29.91 29.89      
Jun 21 19:53 9 10 Clear CLR 82 71     69%   86 29.91 29.9      
Jun 21 18:53 9 10 Clear CLR 85 71     63%   90 29.91 29.9      
Jun 21 17:53 11 10 Clear CLR 86 68     55%   89 29.91 29.9      
Jun 21 16:53 15 10 Mostly Clear FEW060 89 67     48%   92 29.92 29.91      
Jun 21 15:53 9 10 Clear CLR 90 65     44%   92 29.93 29.92      
Jun 21 14:53 E 13 10 Clear CLR 92 63     38%   93 29.95 29.94      
Jun 21 13:53 E 10 10 Clear CLR 91 66     44%   94 29.97 29.96      
Jun 21 12:53   10 Clear CLR 86 68     55%   89 29.99 29.98      
Jun 21 12:08 SSE 8 10 Partly Cloudy SCT025 85 71     63%   90 30        
Jun 21 11:53 6 10 Mostly Cloudy BKN024 84 72     67%   90 30 29.98      
Jun 21 10:53 5 10 Clear CLR 82 72     72%   87 30 29.99      
Jun 21 09:53 3 10 Clear CLR 81 71     72%   85 30 29.99      
Jun 21 08:53 7 10 Clear CLR 78 69     74%   79 30 29.99      
Jun 21 07:53 3 10 Clear CLR 76 69     79%   77 30.01 29.99      
Jun 21 06:53 Calm 10 Clear CLR 71 70     96%   72 30 29.98      
Jun 21 05:53 Calm 10 Clear CLR 68 67     96%     29.98 29.96      
Jun 21 04:53 Calm 10 Clear CLR 69 67     93%     29.96 29.95      
Jun 21 03:53 Calm 10 Clear CLR 69 67     93%     29.96 29.95      
Jun 21 02:53 Calm 10 Clear CLR 70 68     93%     29.97 29.96      
Jun 21 01:53 Calm 10 Clear CLR 73 67     81%   74 29.97 29.96      
Jun 21 00:53 Calm 10 Clear CLR 72 68     87%   73 29.98 29.97      
Jun 20 23:53 W 3 10 Clear CLR 75 66     74%   76 29.99 29.98      
Jun 20 22:53 Calm 10 Clear CLR 75 66     74%   76 29.98 29.97      
Jun 20 21:53 Calm 10 Clear CLR 74 67     79%   75 29.97 29.96      
Jun 20 20:53 Calm 10 Clear CLR 76 67     74%   77 29.96 29.95      
Jun 20 19:53 S 5 10 Clear CLR 86 65     50%   88 29.97 29.96      
Jun 20 18:53 Calm 10 Clear CLR 91 59     34%   90 29.96 29.95      
Jun 20 17:53 5 10 Clear CLR 92 59     33%   91 29.97 29.95      
Jun 20 16:53 W 5 10 Clear CLR 91 61     37%   91 29.97 29.95      
Jun 20 15:53 5 10 Mostly Clear FEW065 90 65     44%   92 29.99 29.98      
Jun 20 14:53 8 10 Clear CLR 91 65     42%   93 30 29.99      
Jun 20 13:53 5 10 Clear CLR 88 64     45%   89 30.02 30.01      
Jun 20 12:53 5 10 Mostly Clear FEW100 87 64     46%   88 30.04 30.03      
Jun 20 11:53 3 10 Clear CLR 88 64     45%   89 30.06 30.04      
Jun 20 10:53 E 6 10 Mostly Clear FEW095 86 63     46%   87 30.06 30.05      
Jun 20 09:53 6 10 Clear CLR 86 64     48%   87 30.06 30.05      
Jun 20 08:53 7 10 Clear CLR 81 64     56%   83 30.07 30.06      
Jun 20 07:53 NE 5 10 Clear CLR 76 63     64%   76 30.07 30.06      
Jun 20 06:53 Calm 10 Clear CLR 70 63     78%     30.06 30.04      
Jun 20 05:53 Calm 10 Clear CLR 64 62     93%     30.05 30.04      
Jun 20 04:53 Calm 10 Clear CLR 67 61     81%     30.03 30.02      
Jun 20 03:53 N 5 10 Clear CLR 66 62     87%     30.03 30.01      
Jun 20 02:53 Calm 10 Clear CLR 66 62     87%     30.03 30.02      
Jun 20 01:53 N 3 10 Clear CLR 67 62     84%     30.04 30.02      
Jun 20 00:53 Calm 10 Clear CLR 69 62     78%     30.05 30.04      
Jun 19 23:53 N 6 10 Clear CLR 70 62     76%     30.05 30.04      
Jun 19 22:53 Calm 10 Clear CLR 70 63     78%     30.05 30.04      
Jun 19 21:53 Calm 10 Clear CLR 72 63     73%   72 30.02 30.01      
Jun 19 20:53 Calm 10 Clear CLR 74 63     69%   74 30 29.99      
Jun 19 19:53 Calm 10 Clear   84 60     44%   84 29.99 29.98      
Jun 19 18:53 Calm 10 Clear CLR 87 55     34%   85 29.98 29.96      
Jun 19 16:53 NE 7 10 Clear CLR 90 53     29%   88 29.96 29.95      
Jun 19 15:53 9 10 Clear CLR 90 58     34%   89 29.97 29.96      
Jun 19 14:53 5 10 Clear CLR 89 58     35%   88 29.99 29.98      
Jun 19 13:53 6 10 Clear CLR 88 60     39%   88 29.99 29.98      
Jun 19 12:53 7 10 Clear CLR 86 60     42%   86 30 29.99      
Jun 19 11:53 3 10 Clear CLR 85 61     45%   85 30.02 30.01      
Jun 19 09:53 NW 6 10 Clear CLR 81 65     58%   83 30.01 30      
Jun 19 08:53 NW 8 10 Clear CLR 79 65     62%   80 30 29.99      
Jun 19 07:53 NW 7 10 Clear CLR 76 65     69%   76 29.98 29.97      
Jun 19 06:53 NW 6 10 Mostly Cloudy BKN060 73 66     79%   74 29.95 29.94     0
Jun 19 03:53 NW 5 10 Mostly Cloudy FEW090 BKN110 73 66     79%   74 29.91 29.9   0  
Jun 19 01:53 W 5 10 Cloudy OVC100 74 67     79%   75 29.92 29.91 0    
Jun 19 00:53 W 5 10 Cloudy OVC110 74 66     76%   75 29.91 29.9     0
Jun 18 21:53 5 10 Cloudy OVC100 77 64     64%   77 29.88 29.87      
Jun 18 20:53 5 10 Mostly Cloudy BKN120 77 66     69%   78 29.87 29.86      
Jun 18 19:53 Calm 10 Clear CLR 78 70     76%   79 29.83 29.81      
Jun 18 18:53 3 10 Clear CLR 81 72     74%   85 29.82 29.81     0
Jun 18 17:53 7 10 Partly Cloudy FEW023 SCT028 79 72     79%   82 29.8 29.78      
Jun 18 15:53 8 10 Clear CLR 75 69     82%   76 29.76 29.75 0 0  
Jun 18 14:53 W 14 10 Light Rain CLR 75 69     82%   76 29.76 29.75 0    
Jun 18 14:43 W 16 10 Clear CLR 75 70     84%   76 29.76        
Jun 18 14:10 14 10 Mostly Cloudy FEW060 BKN080 BKN095 75 71     88%   76 29.77        
Jun 18 13:53 16 10 Thunderstorms FEW060 BKN080 76 70     82%   77 29.79 29.78 0    
Jun 18 12:19 W 8 10 Thunderstorms FEW065 90 76     64%   102 29.79        
Jun 18 12:07 W 10 10 Partly Cloudy FEW024 SCT065 89 76     65%   100 29.8        
Jun 18 11:14 W 10 10 Mostly Cloudy BKN021 BKN032 88 77     70%   100 29.83        
Jun 18 10:53 SW 9 10 Mostly Clear FEW019 88 77     70%   100 29.82 29.81      
Jun 18 10:12 SW 11 10 Partly Cloudy SCT017 SCT040 86 76     72%   96 29.81        
Jun 18 09:53 SW 9 10 Cloudy BKN017 OVC040 83 76     79%   91 29.82 29.8      
Jun 18 09:39 14 10 Clear   83 76     79%   91 29.82        
Jun 18 08:53 SW 10 10 Clear   83 76     79%   91 29.82 29.81      
Jun 18 07:53 SW 10 10 Mostly Cloudy FEW027 BKN050 80 76     87%   85 29.82 29.81      
Jun 18 06:53 8 10 Clear CLR 78 75     90%   80 29.8 29.79      
Jun 18 05:53 5 10 Clear CLR 76 75     97%   78 29.78 29.76      
Jun 18 03:53 S 6 10 Mostly Cloudy SCT036 BKN046 78 75     90%   80 29.77 29.75      
Jun 18 02:53 5 10 Mostly Clear FEW039 78 76     93%   80 29.79 29.78      
Jun 18 01:53 SW 6 10 Clear CLR 79 76     90%   83 29.76 29.75      
Jun 18 00:53 7 10 Clear CLR 80 76     87%   85 29.74 29.73      
Jun 17 22:53 13 10 Clear CLR 82 76     82%   89 29.71 29.7      
Jun 17 21:53 S 11 10 Clear CLR 83 76     79%   91 29.72 29.71      
Jun 17 20:53 S 10 10 Mostly Clear FEW039 84 76     77%   93 29.73 29.72      
Jun 17 19:53 S 13 10 Clear CLR 86 76     72%   96 29.73 29.72      
Jun 17 17:53 S 15 10 Mostly Clear FEW039 90 74     59%   99 29.71 29.7      
Jun 17 16:53 10 10 Mostly Clear FEW038 91 75     60%   102 29.72 29.71      
Jun 17 15:53 14 10 Clear CLR 93 74     54%   103 29.73 29.72      
Jun 17 14:53 17 10 Mostly Cloudy BKN035 91 75     60%   102 29.74 29.73      
Jun 17 12:53 SW 11 10 Clear CLR 87 72     61%   94 29.75 29.73      
Jun 17 10:53 SW 16 10 Clear CLR 85 70     61%   89 29.74 29.73      
Jun 17 08:53 15 10 Clear CLR 77 69     77%   78 29.78 29.77      
Jun 17 07:53 11 10 Clear CLR 75 68     79%   76 29.83 29.82      
Jun 17 06:53 5 10 Cloudy BKN048 BKN060 OVC085 72 68     87%   73 29.83 29.82      
Jun 17 05:53 SW 5 10 Partly Cloudy SCT048 70 68     93%     29.82 29.81      
Jun 17 04:53 S 6 10 Mostly Clear FEW047 69 68     96%     29.79 29.78      
Jun 17 02:53 SSE 6 10 Clear CLR 69 66     90%     29.78 29.77      
Jun 17 01:53 S 5 10 Clear CLR 70 66     87%     29.8 29.78      
Jun 17 00:53 6 10 Clear CLR 71 66     84%   72 29.8 29.78      
Jun 16 21:53 S 3 10 Clear CLR 74 65     74%   74 29.81 29.79      
Jun 16 20:53 8 10 Clear CLR 75 64     69%   75 29.8 29.79      
Jun 16 18:53 SSE 15 10 Clear CLR 78 66     67%   79 29.81 29.8     0
Jun 16 16:53 9 10 Mostly Clear FEW120 83 69     63%   87 29.83 29.82      
Jun 16 15:53 S 9 10 Cloudy FEW070 OVC100 79 68     69%   80 29.84 29.82   0  
Jun 16 14:53 W 5 10 Mostly Clear FEW120 84 72     67%   90 29.84 29.82      
Jun 16 13:53 W 6 10 Clear CLR 85 70     61%   89 29.85 29.83 0    
Jun 16 12:53 10 10 Light Rain BKN037 BKN075 BKN110 85 72     65%   91 29.87 29.86 0   0
Jun 16 11:53 8 10 Clear CLR 85 72     65%   91 29.89 29.88      
Jun 16 10:53 Calm 10 Clear CLR 85 70     61%   89 29.87 29.86      
Jun 16 09:53 3 10 Clear CLR 84 70     63%   88 29.86 29.85      
Jun 16 08:53 6 10 Clear CLR 81 69     67%   84 29.85 29.84      
Jun 16 07:53 E 7 10 Clear CLR 79 70     74%   82 29.84 29.82      
Jun 16 06:53 Calm 10 Clear CLR 77 71     82%   78 29.85 29.84      
Jun 16 05:53 W 6 10 Clear CLR 75 70     84%   76 29.87 29.86      
Jun 16 04:53 Calm 10 Clear CLR 73 71     94%   74 29.87 29.86      
Jun 16 03:53 W 5 10 Clear CLR 76 71     85%   77 29.89 29.88      
Jun 16 02:53 W 6 10 Clear CLR 76 70     82%   77 29.89 29.88      
Jun 16 01:53 W 7 10 Clear CLR 77 70     79%   78 29.87 29.86      
Jun 16 00:53 6 10 Clear CLR 78 71     79%   79 29.87 29.86      
Jun 15 23:53 8 10 Clear CLR 79 71     77%   82 29.89 29.87      
Jun 15 22:53 SW 7 10 Clear CLR 79 71     77%   82 29.9 29.89      
Jun 15 21:53 5 10 Clear CLR 80 70     71%   83 29.88 29.87      
Jun 15 20:53 7 10 Clear CLR 82 71     69%   86 29.86 29.85      
Jun 15 19:53 S 8 10 Clear CLR 86 70     59%   91 29.87 29.85      
Jun 15 18:53 SW 7 10 Clear CLR 90 68     49%   94 29.86 29.85      
Jun 15 16:53 10 10 Clear CLR 92 67     44%   95 29.89 29.88      
Jun 15 14:53 SW 3 10 Clear CLR 92 66     43%   95 29.9 29.88      
Jun 15 13:53 SW 7 10 Clear CLR 89 67     48%   92 29.91 29.9      
Jun 15 11:53 SSE 8 10 Clear CLR 83 66     57%   85 29.91 29.9      
Jun 15 10:53 6 10 Clear CLR 84 65     53%   86 29.98 29.97      
Jun 15 09:53 6 10 Clear CLR 77 67     71%   78 29.99 29.98   0  
Jun 15 08:53 N 8 10 Mostly Clear FEW095 72 69     91%   73 30 29.98 0    
Jun 15 08:51 N 11 10 Mostly Clear FEW075 FEW095 72 70     94%   73 30   0    
Jun 15 08:36 N 16 10 Thunderstorms FEW055 BKN090 BKN110 72 68     87%   73 29.98   0    
Jun 15 08:06   10 Light Rain FEW018 SCT031 BKN048 75 68     79%   76 29.99   0    
Jun 15 07:53 W 13 10 Light Rain SCT070 SCT110 81 76     85%   87 29.97 29.96 0    
Jun 15 06:53 8 10 Mostly Cloudy FEW070 BKN095 79 75     88%   83 29.96 29.94      
Jun 15 05:53 SW 7 10 Cloudy BKN075 OVC095 78 74     87%   80 29.94 29.93      
Jun 15 04:53 SW 7 10 Mostly Cloudy BKN075 78 74     87%   80 29.92 29.9      
Jun 15 03:53 6 10 Partly Cloudy SCT070 78 74     87%   80 29.9 29.89      
Jun 15 02:53 S 5 10 Clear CLR 78 73     85%   80 29.92 29.91      
Jun 15 00:53 9 10 Clear CLR 81 72     74%   85 29.93 29.92      
Jun 14 23:53 S 7 10 Clear CLR 80 72     76%   84 29.94 29.93      
Jun 14 22:53 S 7 10 Clear CLR 81 72     74%   85 29.94 29.93      
Jun 14 20:53 S 7 10 Clear CLR 84 72     67%   90 29.92 29.91      
Jun 14 19:53 8 10 Mostly Clear FEW060 87 71     59%   93 29.91 29.9      
Jun 14 18:53 SW 15 10 Clear CLR 90 70     52%   95 29.9 29.89      
Jun 14 17:53 17 10 Mostly Clear FEW050 92 71     51%   99 29.9 29.89      
Jun 14 15:53 17 10 Partly Cloudy SCT047 91 71     52%   98 29.91 29.9      
Jun 14 14:53 SW 16 10 Mostly Clear FEW045 93 72     51%   101 29.93 29.92      
Jun 14 13:53 SW 16 10 Partly Cloudy SCT042 93 72     51%   101 29.96 29.95      
Jun 14 12:53 16 10 Mostly Cloudy BKN039 91 72     54%   99 29.99 29.97      
Jun 14 11:53 13 10 Partly Cloudy SCT033 91 73     56%   100 30 29.99      
Jun 14 10:53 SW 14 10 Partly Cloudy FEW025 SCT120 90 74     59%   99 30.01 30      
Jun 14 09:53 SW 10 10 Partly Cloudy FEW023 SCT100 85 74     70%   92 30.02 30.01      
Jun 14 08:53 11 10 Clear CLR 84 73     70%   90 30.02 30.01      
Jun 14 07:53 10 10 Clear CLR 80 74     82%   85 30.01 30      
Jun 14 06:53 S 5 10 Clear CLR 76 73     91%   77 29.99 29.98      
Jun 14 05:53 S 3 10 Clear CLR 74 72     94%   75 29.98 29.97      
Jun 14 04:53 Calm 10 Clear CLR 74 71     91%   75 29.96 29.95      
Jun 14 03:53 S 3 10 Clear CLR 75 71     88%   76 29.95 29.94      
Jun 14 02:53 S 6 10 Clear CLR 76 71     85%   77 29.95 29.94      
Jun 14 01:53 5 10 Clear CLR 77 71     82%   78 29.95 29.94      
Jun 14 00:53 S 6 10 Clear CLR 78 71     79%   79 29.95 29.94      
Jun 13 23:53 S 7 10 Clear CLR 79 72     79%   82 29.96 29.95      
Jun 13 22:53 S 9 10 Clear CLR 81 72     74%   85 29.97 29.96      
Jun 13 21:53 S 8 10 Mostly Clear FEW045 82 72     72%   87 29.96 29.95      
Jun 13 20:53 6 10 Clear CLR 84 72     67%   90 29.94 29.93      
Jun 13 18:53 S 11 10 Clear CLR 89 72     57%   96 29.93 29.92      
Jun 13 17:53 9 10 Partly Cloudy SCT047 91 71     52%   98 29.93 29.92      
Jun 13 16:53 S 13 10 Mostly Clear FEW047 92 71     51%   99 29.95 29.93      
Jun 13 15:53 13 10 Mostly Clear FEW047 FEW065 91 71     52%   98 29.96 29.94      
Jun 13 14:53 SW 11 10 Partly Cloudy SCT043 93 72     51%   101 29.98 29.96      
Jun 13 13:53 9 10 Mostly Cloudy BKN041 91 72     54%   99 30 29.99      
Jun 13 12:53 11 10 Clear CLR 90 72     56%   97 30.03 30.01      
Jun 13 11:53 SW 14 10 Mostly Clear FEW035 88 72     59%   95 30.04 30.03      
Jun 13 10:53 SW 9 10 Mostly Clear FEW026 86 72     63%   92 30.04 30.03      
Jun 13 09:53 10 10 Clear CLR 84 72     67%   90 30.06 30.04      
Jun 13 08:53 10 10 Clear CLR 82 71     69%   86 30.06 30.04      
Jun 13 06:53 S 5 10 Clear CLR 75 72     90%   76 30.04 30.03      
Jun 13 05:53 S 6 10 Clear CLR 73 72     96%   75 30.02 30.01      
Jun 13 04:53 S 7 10 Clear   74 72     94%   75 30.01 29.99      
Jun 13 03:53 Calm 10 Clear CLR 76 72     88%   77 29.99 29.98      
Jun 13 02:53 SW 8 10 Clear CLR 77 72     84%   78 29.98 29.97      
Jun 13 01:53 S 6 10 Clear CLR 77 72     84%   78 30 29.98      
Jun 13 00:53 S 7 10 Clear CLR 78 72     82%   79 30 29.99      
Jun 12 23:53 S 8 10 Clear CLR 79 72     79%   82 30 29.99      
Jun 12 22:53 S 9 10 Clear CLR 80 72     76%   84 30.01 29.99      
Jun 12 21:53 SSE 9 10 Clear CLR 82 72     72%   87 29.99 29.98      
Jun 12 19:53 S 16 10 Clear CLR 86 73     65%   93 29.96 29.95      
Jun 12 18:53 S 11 10 Clear CLR 89 72     57%   96 29.94 29.93      
Jun 12 17:53 9 10 Clear CLR 92 72     52%   100 29.95 29.94      
Jun 12 16:53 13 10 Clear CLR 91 72     54%   99 29.97 29.96      
Jun 12 14:53 S 13 10 Mostly Clear FEW036 90 73     58%   98 30 29.99      
Jun 12 13:53 S 10 10 Mostly Clear FEW034 FEW070 90 74     59%   99 30.02 30.01      
Jun 12 12:53 14 10 Mostly Cloudy FEW027 SCT036 BKN060 88 74     63%   97 30.05 30.04      
Jun 12 12:37 11 10 Cloudy FEW027 BKN038 OVC060 86 74     67%   94 30.06        
Jun 12 11:53 S 10 10 Mostly Cloudy BKN024 BKN035 86 74     67%   94 30.07 30.06      
Jun 12 10:53 S 13 10 Cloudy OVC026 83 73     72%   89 30.07 30.06      
Jun 12 09:53 11 10 Cloudy BKN018 OVC034 82 72     72%   87 30.07 30.06      
Jun 12 09:25 14 10 Cloudy OVC016 81 73     77%   86 30.08        
Jun 12 08:53 10 10 Cloudy OVC013 78 73     85%   80 30.08 30.07      
Jun 12 07:53 7 10 Cloudy OVC013 77 73     88%   79 30.08 30.07      
Jun 12 06:53 11 10 Cloudy OVC011 76 72     88%   77 30.05 30.04      
Jun 12 06:20 9 10 Mostly Cloudy BKN013 75 72     90%   76 30.04        
Jun 12 05:53 8 10 Clear CLR 74 71     91%   75 30.04 30.02      
Jun 12 04:53 S 8 10 Clear CLR 75 70     84%   76 30.02 30.01      
Jun 12 03:53 9 10 Clear CLR 76 69     79%   77 30 29.99      
Jun 12 02:53 S 7 10 Clear CLR 75 69     82%   76 30 29.99      
Jun 12 01:53 S 3 10 Partly Cloudy FEW044 SCT060 76 68     76%   77 30 29.98      
Jun 12 00:53 SSE 3 10 Clear CLR 77 68     74%   78 29.99 29.98      
Jun 11 23:53 Calm 10 Clear CLR 77 68     74%   78 30 29.99      
Jun 11 22:53 6 10 Clear CLR 78 68     71%   79 30.01 30      
Jun 11 21:53 S 6 10 Clear CLR 79 67     67%   80 30 29.99      
Jun 11 20:53 8 10 Clear CLR 81 66     61%   83 29.98 29.97      
Jun 11 19:53 S 10 10 Clear CLR 84 65     53%   86 29.98 29.97      
Jun 11 18:53 11 10 Clear CLR 86 65     50%   88 29.97 29.96      
Jun 11 17:53 S 14 10 Clear CLR 89 64     44%   90 29.98 29.97      
Jun 11 16:53 S 16 10 Clear CLR 90 64     42%   91 29.99 29.98      
Jun 11 15:53 13 10 Clear CLR 92 64     40%   94 30.01 30      
Jun 11 14:53 S 16 10 Mostly Clear FEW060 90 65     44%   92 30.02 30.01      
Jun 11 13:53 S 13 10 Partly Cloudy SCT055 89 66     47%   92 30.03 30.02      
Jun 11 12:53 S 14 10 Mostly Clear FEW050 88 66     48%   90 30.05 30.03      
Jun 11 11:53 10 10 Mostly Cloudy SCT047 BKN065 85 66     53%   87 30.06 30.04      
Jun 11 10:53 S 11 10 Mostly Clear FEW070 87 66     50%   89 30.06 30.05      
Jun 11 09:53 11 10 Clear CLR 84 66     55%   86 30.06 30.05      
Jun 11 08:53 S 9 10 Clear CLR 78 67     69%   79 30.06 30.05      
Jun 11 07:53 S 7 10 Clear CLR 74 66     76%   75 30.05 30.03      
Jun 11 06:53 Calm 10 Clear CLR 70 64     81%     30.03 30.02      
Jun 11 05:53 Calm 10 Clear CLR 64 62     93%     30.02 30.01      
Jun 11 04:53 Calm 10 Clear CLR 64 63     96%     30.01 30      
Jun 11 03:53 S 3 10 Clear CLR 68 63     84%     29.99 29.98      
Jun 11 02:53 S 6 10 Clear CLR 70 63     78%     29.99 29.98      
Jun 11 01:53 S 7 10 Clear CLR 70 63     78%     30 29.98      
Jun 11 00:53 S 5 10 Clear CLR 71 63     76%   71 30 29.98      
Jun 10 23:53 S 6 10 Clear CLR 72 64     76%   72 29.99 29.98      
Jun 10 22:53 SSE 7 10 Clear CLR 74 62     66%   74 29.99 29.98      
Jun 10 21:53 S 6 10 Clear   75 62     64%   75 29.97 29.96      
Jun 10 20:53 S 5 10 Clear CLR 77 62     60%   77 29.95 29.94      
Jun 10 19:53 9 10 Clear CLR 81 61     51%   82 29.95 29.94      
Jun 10 18:53 S 14 10 Clear CLR 84 60     44%   84 29.94 29.93      
Jun 10 17:53 S 17 10 Clear CLR 86 60     42%   86 29.94 29.93      
Jun 10 16:53 S 14 10 Clear CLR 86 60     42%   86 29.94 29.93      
Jun 10 15:53 14 10 Clear CLR 87 59     39%   86 29.95 29.94      
Jun 10 14:53 SSE 13 10 Mostly Clear FEW055 85 61     45%   85 29.97 29.96      
Jun 10 13:53 SW 16 10 Clear CLR 87 60     40%   87 29.99 29.98      
Jun 10 12:53 S 13 10 Clear CLR 85 59     42%   85 30 29.99      
Jun 10 11:53 SW 10 10 Partly Cloudy SCT050 83 59     44%   83 30.01 30.01      
Jun 10 10:53 10 10 Clear CLR 82 59     46%   82 30.02 30.01      
Jun 10 10:41 S 10 10 Clear CLR 82 58     44%   82 30.02        
Jun 10 10:33 10 2 Haze CLR 82 58     44%   82 30.01        
Jun 10 09:53 S 10 10 Clear CLR 78 60     54%   78 30.02 30.01      
Jun 10 08:53 S 7 10 Clear CLR 75 63     66%   75 30.01 30.01      
Jun 10 07:53 Calm 10 Clear CLR 69 62     78%     30 29.99      
Jun 10 06:53 Calm 10 Clear CLR 65 62     90%     29.99 29.98      
Jun 10 04:53 Calm 10 Clear CLR 59 57     93%     29.95 29.94      
Jun 10 03:53 Calm 10 Clear CLR 61 59     93%     29.93 29.92      
Jun 10 02:53 Calm 10 Clear CLR 62 59     90%     29.94 29.93      
Jun 10 01:53 Calm 10 Clear CLR 65 59     81%     29.95 29.94      
Jun 10 00:53 Calm 10 Clear CLR 62 59     90%     29.95 29.94      
Jun 09 23:53 Calm 10 Clear CLR 62 58     86%     29.95 29.94      
Jun 09 22:53 Calm 10 Clear CLR 65 58     78%     29.94 29.93      
Jun 09 21:53 Calm 10 Clear CLR 66 58     75%     29.92 29.91      
Jun 09 20:53 Calm 10 Clear CLR 69 57     65%     29.91 29.9      
Jun 09 19:53 5 10 Clear CLR 78 53     42%   78 29.9 29.89      
Jun 09 18:53 6 10 Clear CLR 82 52     35%   81 29.9 29.89      
Jun 09 17:53 SSE 5 10 Clear CLR 83 53     36%   82 29.91 29.9      
Jun 09 16:53 9 10 Clear CLR 84 51     32%   82 29.92 29.91      
Jun 09 15:53 SSE 7 10 Clear CLR 82 53     37%   81 29.93 29.92      
Jun 09 14:53 7 10 Clear CLR 84 53     35%   83 29.95 29.94      
Jun 09 13:53 Calm 7 Mostly Clear FEW001 81 51     35%   80 29.96 29.95      
Jun 09 13:50 3 5 Haze FEW001 82 52     35%   81 29.96        
Jun 09 12:53 9 10 Clear CLR 84 53     35%   83 29.98 29.97      
Jun 09 11:53 6 10 Clear CLR 80 52     38%   80 29.99 29.98      
Jun 09 09:53 W 7 10 Clear CLR 80 52     38%   80 29.99 29.98      
Jun 09 08:53 6 10 Clear CLR 75 54     48%   74 29.99 29.98      
Jun 09 07:53 Calm 10 Clear CLR 68 58     70%     29.98 29.97      
Jun 09 06:53 Calm 10 Clear CLR 61 58     90%     29.96 29.95      
Jun 09 04:53 Calm 10 Clear CLR 57 55     93%     29.93 29.92      
Jun 09 03:53 Calm 10 Clear CLR 58 56     93%     29.93 29.92      
Jun 09 02:53 Calm 10 Clear   58 56     93%     29.93 29.92      
Jun 09 01:53 3 10 Clear CLR 63 57     81%     29.93 29.92      
Jun 09 00:53 Calm 10 Clear CLR 61 55     81%     29.93 29.92      
Jun 08 23:53 Calm 10 Clear CLR 62 55     78%     29.93 29.92      
Jun 08 22:53 Calm 10 Clear   63 56     78%     29.93 29.92      
Jun 08 21:53 N 5 10 Clear CLR 64 56     75%     29.93 29.92      
Jun 08 19:53 Calm 10 Clear CLR 73 56     55%   73 29.92 29.91      
Jun 08 18:53 N 6 10 Clear CLR 79 50     36%   78 29.92 29.91      
Jun 08 16:53 7 10 Clear CLR 82 49     32%   81 29.93 29.92      
Jun 08 15:53 6 10 Clear CLR 81 49     33%   80 29.95 29.94      
Jun 08 14:53 11 10 Clear CLR 80 50     35%   79 29.97 29.96      
Jun 08 13:53 8 10 Clear CLR 80 51     36%   79 29.99 29.98      
Jun 08 12:53 8 10 Clear CLR 79 52     39%   78 30.02 30.01      
Jun 08 11:53 10 10 Clear CLR 78 53     42%   78 30.02 30.01      
Jun 08 10:53 9 10 Clear CLR 75 51     43%   74 30.03 30.03      
Jun 08 09:53 11 10 Clear CLR 74 56     53%   74 30.03 30.02      
Jun 08 08:53 NE 6 10 Clear CLR 70 56     61%     30.04 30.03      
Jun 08 07:53 NE 9 10 Clear CLR 68 56     65%     30.02 30.01      
Jun 08 06:53 6 10 Clear CLR 64 55     73%     30.01 30      
Jun 08 05:53 7 10 Clear CLR 61 54     78%     30 29.98      
Jun 08 03:53 N 6 10 Clear CLR 63 53     70%     29.97 29.96      
Jun 08 02:53 7 10 Clear CLR 64 53     67%     29.97 29.96      
Jun 08 01:53 7 10 Clear CLR 66 52     61%     29.97 29.96      
Jun 08 00:53 7 10 Clear CLR 68 51     55%     29.97 29.96      
Jun 07 23:53 7 10 Clear CLR 69 51     53%     29.98 29.97      
Jun 07 22:53 N 6 10 Partly Cloudy SCT075 71 54     55%   70 29.98 29.97      
Jun 07 21:53 N 5 10 Cloudy OVC070 71 56     59%   71 29.97 29.96      
Jun 07 20:53 N 3 10 Clear CLR 70 56     61%     29.96 29.96      
Jun 07 19:53 5 10 Clear CLR 76 53     45%   75 29.96 29.95      
Jun 07 18:53 8 10 Clear CLR 81 52     37%   80 29.95 29.94      
Jun 07 17:53 8 10 Mostly Clear FEW070 83 52     34%   82 29.95 29.94      
Jun 07 16:53 NE 11 10 Clear CLR 84 49     30%   82 29.95 29.94      
Jun 07 16:46 8 10 Mostly Clear FEW002 84 49     30%   82 29.95        
Jun 07 15:53 NE 10 10 Clear CLR 84 50     31%   82 29.95 29.95      
Jun 07 14:53 5 10 Clear CLR 84 52     33%   82 29.96 29.95      
Jun 07 13:53 N 9 10 Mostly Clear FEW060 83 54     37%   82 29.97 29.96      
Jun 07 12:53 NE 8 10 Mostly Clear FEW060 81 55     41%   81 29.98 29.97      
Jun 07 11:53 9 10 Clear CLR 81 55     41%   81 29.99 29.98      
Jun 07 10:53 NE 8 10 Clear CLR 80 53     39%   80 29.99 29.98      
Jun 07 09:53 5 10 Clear CLR 77 53     43%   76 29.99 29.98      
Jun 07 08:53 NE 11 10 Clear CLR 73 52     48%   72 29.99 29.98      
Jun 07 07:53 8 10 Clear CLR 70 52     53%     29.98 29.97      
Jun 06 13:53 15 10 Clear CLR 85 68     57%   88 29.83 29.82      
Jun 06 12:53 NE 7 10 Clear CLR 84 69     61%   88 29.83 29.82      
Jun 06 11:53 E 7 10 Mostly Clear FEW003 82 68     63%   85 29.84 29.83      
Jun 06 11:21 9 10 Partly Cloudy SCT018 82 68     63%   85 29.84        
Jun 06 10:53 13 10 Mostly Cloudy BKN016 81 69     67%   84 29.85 29.84      
Jun 06 10:20 11 10 Partly Cloudy SCT012 78 69     74%   79 29.84        
Jun 06 09:53 13 10 Cloudy OVC011 76 69     79%   77 29.84 29.83      
Jun 06 09:30 8 10 Cloudy OVC010 75 70     84%   76 29.85        
Jun 06 08:53 8 10 Cloudy OVC007 74 70     87%   75 29.85 29.84      
Jun 06 07:53 6 10 Cloudy OVC006 74 71     91%   75 29.84 29.83      
Jun 06 07:43 6 10 Mostly Cloudy BKN008 74 70     87%   75 29.84        
Jun 06 07:35 N 5 10 Partly Cloudy SCT008 73 70     90%   74 29.83        
Jun 06 06:53 3 10 Clear CLR 72 68     87%   73 29.83 29.82      
Jun 06 05:53 N 3 10 Clear CLR 68 66     93%     29.82 29.81      
Jun 06 04:53 N 6 10 Clear CLR 68 66     93%     29.8 29.79      
Jun 06 03:53 N 5 10 Clear CLR 69 67     93%     29.8 29.79      
Jun 06 02:53 N 6 10 Clear CLR 69 67     93%     29.8 29.79      
Jun 06 02:14 N 6 8 Clear CLR 69 67     93%     29.8        
Jun 06 02:05 N 5 2.5 Fog/Mist CLR 68 67     96%     29.8        
Jun 06 01:53 Calm 4 Fog/Mist CLR 69 67     93%     29.8 29.79      
Jun 06 01:06 N 5 9 Clear CLR 69 67     93%     29.81        
Jun 06 00:53 Calm 2.5 Fog/Mist CLR 68 67     96%     29.81 29.8      
Jun 05 23:53 N 3 10 Clear CLR 71 69     93%   72 29.81 29.8      
Jun 05 22:53 N 3 10 Clear CLR 70 69     97%     29.8 29.79      
Jun 05 21:53 N 3 10 Clear   72 70     93%   73 29.8 29.79      
Jun 05 20:53 N 5 10 Clear CLR 72 70     93%   73 29.78 29.77      
Jun 05 19:53 Calm 10 Clear CLR 74 71     91%   75 29.76 29.75      
Jun 05 18:53 Calm 10 Clear CLR 75 71     88%   76 29.76 29.75     0
Jun 05 17:53 5 10 Clear   75 72     90%   76 29.76 29.75      
Jun 05 16:53 NE 5 10 Clear CLR 74 71     91%   75 29.76 29.75 0    
Jun 05 15:53 NE 8 10 Light Rain FEW043 BKN070 BKN090 73 70     90%   74 29.76 29.75 0 0  
Jun 05 14:53 NE 7 8 Rain BKN065 OVC080 72 70     93%   73 29.78 29.77 0    
Jun 05 13:53 9 8 Light Rain SCT070 BKN080 OVC120 72 69     91%   73 29.78 29.77 0    
Jun 05 13:27 NE 7 10 Light Rain FEW080 OVC110 72 69     91%   73 29.78   0    
Jun 05 13:12 7 10 Light Rain SCT035 SCT055 OVC100 72 70     93%   73 29.78   0    
Jun 05 12:59 NE 8 3 Rain and Fog/Mist BKN035 BKN045 OVC055 71 69     93%   72 29.79   0    
Jun 05 12:53 10 1.5 Heavy Rain and Fog/Mist BKN031 BKN045 OVC055 71 69     93%   72 29.79 29.78 0   0
Jun 05 12:35 8 1.75 Heavy Rain and Fog/Mist FEW019 BKN029 OVC047 71 69     93%   72 29.79   0    
Jun 05 12:12 13 10 Cloudy BKN019 OVC032 74 68     82%   75 29.78        
Jun 05 12:02 NE 10 10 Mostly Cloudy FEW017 BKN024 BKN029 78 68     71%   79 29.78        
Jun 05 11:53 3 10 Mostly Cloudy SCT022 SCT029 BKN038 79 69     72%   80 29.78 29.77      
Jun 05 11:18 SSE 9 10 Mostly Cloudy BKN022 BKN029 80 70     71%   83 29.77        
Jun 05 10:53 Calm 10 Mostly Cloudy SCT020 BKN025 78 69     74%   79 29.78 29.77      
Jun 05 10:41 SSE 6 10 Partly Cloudy SCT020 SCT031 78 69     74%   79 29.78        
Notice The following observation data may not be complete
Jun 05 10:23   10 Mostly Cloudy FEW015 BKN030 BKN038          %              
Jun 05 09:53 SSE 8 10 Cloudy SCT016 BKN023 OVC029 76 70     82%   77 29.78 29.77      
Jun 05 09:40 SSE 7 10 Mostly Cloudy FEW014 BKN023 BKN029 77 70     79%   78 29.78        
Jun 05 09:29 6 10 Partly Cloudy FEW012 FEW021 SCT028 77 70     79%   78 29.78        
Jun 05 09:00 7 10 Mostly Cloudy SCT010 BKN017 BKN023 76 70     82%   77 29.79        
Jun 05 08:53 3 10 Mostly Cloudy FEW010 SCT015 BKN100 75 70     84%   76 29.79 29.78      
Jun 05 08:49 Calm 10 Mostly Cloudy SCT015 BKN100 75 70     83%   76 29.79        
Jun 05 08:06 5 10 Cloudy SCT008 OVC014 74 71     91%   75 29.79        
Jun 05 07:53 S 3 10 Cloudy SCT009 OVC015 74 71     91%   75 29.78 29.78      
Jun 05 07:41 S 5 10 Cloudy SCT009 OVC015 74 71     91%   75 29.78        
Jun 05 07:09 S 3 10 Cloudy BKN005 OVC010 74 71     91%   75 29.78        
Jun 05 06:43 Calm 10 Cloudy BKN004 BKN010 OVC015 73 71     94%   74 29.78        
Jun 05 06:33 Calm 10 Cloudy SCT009 OVC015 73 71     94%   74 29.78        
Jun 05 06:06 Calm 10 Mostly Cloudy BKN009 BKN013 BKN032 72 70     93%   73 29.78        
Jun 05 05:53 Calm 10 Mostly Cloudy FEW009 SCT025 BKN032 71 69     93%   72 29.78 29.77      
Jun 05 05:46 3 10 Partly Cloudy FEW009 SCT025 71 69     93%   72 29.77        
Jun 05 05:34 Calm 10 Mostly Cloudy SCT008 BKN025 BKN040 71 69     93%   72 29.77        
Jun 05 04:53 Calm 10 Mostly Cloudy FEW005 BKN110 71 70     96%   72 29.77 29.76      
Jun 05 04:08 Calm 10 Partly Cloudy FEW006 FEW100 SCT120 72 70     93%   73 29.77        
Jun 05 03:53 Calm 10 Mostly Clear FEW100 73 70     90%   74 29.77 29.76      
Jun 05 02:53 Calm 10 Mostly Cloudy BKN100 73 70     90%   74 29.77 29.76      
Jun 05 01:53 5 10 Mostly Clear FEW020 FEW100 73 70     90%   74 29.79 29.78      
Jun 05 01:37 3 10 Partly Cloudy SCT018 SCT100 73 70     90%   74 29.79        
Jun 05 00:53 Calm 10 Mostly Cloudy BKN018 73 71     94%   74 29.8 29.79     0
Jun 05 00:12 5 10 Clear   73 71     94%   74 29.8        
Jun 04 23:53 6 10 Clear   73 72     96%   75 29.81 29.8      
Jun 04 22:53 5 10 Mostly Cloudy BKN007 BKN010 74 72     94%   75 29.79 29.78      
Jun 04 22:10 Calm 10 Mostly Clear FEW008 73 71     94%   74 29.8        
Jun 04 21:53 Calm 10 Clear CLR 75 72     90%   76 29.8 29.79 0 0  
Jun 04 20:53 3 10 Cloudy FEW018 SCT027 OVC048 75 72     90%   76 29.81 29.8 0    
Jun 04 20:45 6 10 Cloudy FEW019 BKN032 OVC046 75 72     90%   76 29.81   0    
Jun 04 20:32 7 10 Light Rain SCT017 BKN024 BKN033 75 71     88%   76 29.81   0    
Jun 04 20:24 S 7 10 Mostly Cloudy SCT024 BKN031 BKN042 76 71     85%   77 29.81        
Jun 04 19:53 SSE 7 10 Mostly Cloudy FEW011 BKN022 76 72     88%   77 29.79 29.78      
Jun 04 19:27 3 10 Mostly Cloudy SCT015 BKN022 76 72     88%   77 29.78        
Jun 04 18:51 SSE 6 10 Light Rain BKN012 BKN110 77 72     83%   78 29.77   0    
Jun 04 16:53 S 6 10 Partly Cloudy SCT012 77 72     84%   78 29.8 29.79      
Jun 04 15:51 S 14 10 Mostly Cloudy SCT012 BKN017 BKN025 79 72     79%   82 29.83        
Jun 04 15:42 SSE 13 10 Cloudy BKN014 BKN020 OVC027 78 72     82%   79 29.83        
Jun 04 15:12 SSE 9 10 Mostly Cloudy SCT015 BKN020 BKN025 78 72     82%   79 29.82        
Jun 04 14:53 SSE 9 10 Mostly Cloudy BKN012 77 72     84%   78 29.83 29.82 0    
Jun 04 13:53 SSE 9 10 Mostly Clear FEW110 77 73     88%   79 29.85 29.84      
Jun 04 13:26 SSE 7 10 Mostly Cloudy FEW026 SCT050 BKN070 76 72     88%   77 29.86        
Jun 04 13:05 13 6 Thunderstorms and Rain and Fog/Mist FEW008 BKN036 OVC075 76 73     91%   77 29.86        
Jun 04 12:58 7 3 Light Rain and Fog/Mist SCT031 BKN046 OVC075 76 73     91%   77 29.86        
Jun 04 12:42 7 2.5 Heavy Rain and Fog/Mist FEW010 SCT039 OVC048 75 72     90%   76 29.87   0    
Jun 04 12:14 10 10 Mostly Cloudy SCT012 SCT023 BKN032 77 73     88%   79 29.87   0    
Jun 04 11:53 10 10 Light Rain BKN016 OVC023 77 72     84%   78 29.88 29.87 0    
Jun 04 11:31 8 7 Light Rain SCT014 BKN023 OVC055 78 72     82%   79 29.88   0    
Jun 04 10:53 5 10 Mostly Cloudy FEW014 SCT023 BKN046 78 71     79%   79 29.89 29.88      
Jun 04 10:05 E 5 10 Cloudy FEW010 BKN034 OVC042 77 71     82%   78 29.9        
Jun 04 09:53 6 10 Cloudy SCT010 BKN016 OVC037 76 72     88%   77 29.9 29.89      
Jun 04 09:30 8 10 Cloudy BKN010 BKN016 OVC033 76 72     88%   77 29.91        
Jun 04 08:53 7 10 Cloudy BKN007 OVC013 75 72     90%   76 29.9 29.89      
Jun 04 07:53 E 3 10 Cloudy BKN005 OVC014 74 72     94%   75 29.9 29.89      
Jun 04 07:36 E 3 10 Cloudy BKN005 OVC015 74 72     94%   75 29.91        
Jun 04 07:22 3 10 Cloudy FEW005 OVC016 73 71     94%   74 29.91        
Jun 04 07:07 3 10 Mostly Cloudy FEW005 BKN012 73 71     94%   74 29.91        
Jun 04 06:38 NE 3 7 Mostly Cloudy SCT013 BKN031 72 70     93%   73 29.91        
Jun 04 05:53 5 10 Cloudy OVC013 72 70     93%   73 29.91 29.9      
Jun 04 05:24 3 10 Mostly Cloudy BKN014 72 70     93%   73 29.91        
Jun 04 04:53 NE 3 10 Clear CLR 71 69     93%   72 29.91 29.9      
Jun 04 04:25 Calm 10 Partly Cloudy SCT003 SCT019 71 70     96%   72 29.91        
Jun 04 04:14 Calm 10 Mostly Cloudy FEW004 BKN019 72 70     93%   73 29.91        
Jun 04 03:53 5 10 Cloudy BKN019 OVC024 72 70     93%   73 29.91 29.9   0  
Jun 04 03:16 NE 6 10 Mostly Cloudy SCT004 BKN022 71 70     96%   72 29.92        
Jun 04 02:53 6 10 Partly Cloudy SCT005 71 70     96%   72 29.92 29.9      
Jun 04 01:53 NE 3 10 Clear CLR 71 69     93%   72 29.93 29.91 0    
Jun 03 23:53 Calm 10 Light Rain FEW060 SCT085 BKN110 70 68     93%     29.95 29.94 0    
Jun 03 23:36 Calm 10 Light Rain FEW060 SCT085 BKN110 70 67     90%     29.95   0    
Jun 03 22:53 11 10 Light Rain FEW041 BKN060 73 69     87%   74 29.97 29.96      
Jun 03 22:26 NE 6 10 Light Rain FEW110 71 69     93%   72 29.95        
Jun 03 21:28 10 2.5 Heavy Rain and Fog/Mist FEW009 BKN042 OVC075 73 70     90%   74 29.98        
Jun 03 20:53 E 13 10 Light Rain FEW040 BKN080 OVC090 74 70     87%   75 29.94 29.93      
Jun 03 20:28 SSE 11 4 Heavy Rain BKN042 BKN050 BKN075 75 66     74%   76 29.93   0    
Jun 03 20:11 S 9 10 Thunderstorms BKN048 BKN085 BKN110 74 68     82%   75 29.93   0    
Jun 03 19:53 3 6 Rain and Fog/Mist BKN043 BKN075 OVC095 75 71     88%   76 29.94 29.93 0    
Jun 03 19:43 NE 3 10 Cloudy FEW042 BKN070 OVC080 75 71     88%   76 29.93        
Jun 03 19:04 NE 5 10 Mostly Clear FEW120 75 69     82%   76 29.92        
Jun 03 18:53 6 10 Mostly Clear FEW120 74 69     85%   75 29.92 29.91 0   0
Jun 03 18:39 7 10 Mostly Clear FEW110 74 69     85%   75 29.92   0    
Jun 03 18:29 NE 5 10 Mostly Cloudy SCT100 BKN120 75 69     82%   76 29.91   0    
Jun 03 17:53 NE 10 10 Light Rain OVC095 74 69     85%   75 29.94 29.93 0    
Jun 03 17:11 S 5 6 Thunderstorms and Rain FEW033 SCT060 BKN085 76 70     82%   77 29.93   0    
Jun 03 16:53 NE 7 10 Mostly Clear FEW049 FEW060 81 69     67%   84 29.93 29.92 0    
Jun 03 16:41 NE 9 10 Mostly Clear FEW065 82 69     65%   85 29.92   0    
Jun 03 16:04 NE 7 10 Mostly Cloudy SCT041 BKN050 BKN100 80 68     67%   83 29.93   0    
Jun 03 15:53 8 10 Light Rain BKN041 OVC050 78 69     74%   79 29.94 29.93 0 0  
Jun 03 15:42 14 10 Mostly Cloudy BKN041 BKN049 BKN110 82 69     65%   85 29.94        
Jun 03 15:27 E 8 10 Thunderstorms SCT110 86 69     57%   90 29.94        
Jun 03 14:53 E 8 10 Mostly Cloudy BKN040 BKN050 BKN065 84 68     59%   87 29.96 29.95      
Jun 03 13:53 11 10 Partly Cloudy FEW002 FEW043 SCT050 86 68     55%   89 29.97 29.96      
Jun 03 13:19 9 10 Partly Cloudy FEW002 SCT045 84 69     61%   88 29.99        
Jun 03 11:53 E 9 10 Mostly Cloudy FEW024 SCT029 BKN043 81 70     69%   84 30.02 30.01      
Jun 03 11:50 8 10 Mostly Cloudy FEW022 SCT029 BKN042 82 70     66%   86 30.02        
Jun 03 11:31 E 8 10 Cloudy SCT023 BKN028 OVC038 80 70     71%   83 30.03        
Jun 03 10:53 7 10 Mostly Cloudy FEW019 SCT024 BKN038 79 69     72%   80 30.03 30.03      
Jun 03 09:05 7 10 Mostly Clear FEW023 76 70     82%   77 30.05        
Jun 03 08:53 6 10 Mostly Cloudy BKN023 75 69     82%   76 30.05 30.04      
Jun 03 08:39 E 6 10 Mostly Cloudy BKN022 75 69     82%   76 30.05        
Jun 03 07:53 8 10 Mostly Clear FEW023 FEW027 FEW034 73 69     87%   74 30.04 30.03      
Jun 03 06:53 6 10 Cloudy FEW025 BKN039 OVC075 71 68     90%   72 30.04 30.03      
Jun 03 05:53 5 10 Cloudy FEW041 BKN049 OVC070 69 67     93%     30.02 30.01      
Jun 03 04:53 NE 3 10 Mostly Cloudy BKN040 BKN065 69 66     90%     30.01 30      
Jun 03 03:53 NE 5 10 Mostly Cloudy BKN050 68 66     93%     30 29.99      
Jun 03 02:53 NE 6 10 Clear CLR 68 65     90%     29.99 29.98      
Jun 03 01:53 Calm 10 Clear CLR 68 65     90%     30 29.98      
Jun 03 00:53 5 10 Clear CLR 70 65     84%     30.01 30      
Jun 02 23:53 Calm 10 Clear CLR 69 66     90%     30.01 30      
Jun 02 22:53 3 10 Clear CLR 70 67     90%     30.01 30      
Jun 02 21:53 3 10 Clear CLR 70 67     90%     30 29.99      
Jun 02 20:53 Calm 10 Clear CLR 74 67     79%   75 29.99 29.98      
Jun 02 19:53 S 7 10 Clear CLR 75 67     76%   76 29.99 29.98      
Jun 02 18:53 S 15 10 Partly Cloudy FEW060 SCT085 78 67     69%   79 29.98 29.97      
Jun 02 17:53 9 10 Mostly Clear FEW070 82 67     60%   85 29.98 29.97      
Jun 02 16:53 S 7 10 Clear CLR 81 63     54%   82 29.98 29.97      
Jun 02 15:53 SSE 11 10 Mostly Cloudy SCT060 SCT075 BKN090 79 66     65%   80 30 29.99      
Jun 02 15:49 S 13 10 Mostly Cloudy SCT060 BKN075 BKN090 79 66     65%   79 30        
Jun 02 14:53 E 8 10 Partly Cloudy SCT049 SCT055 SCT070 86 63     46%   87 30 29.99      
Jun 02 13:53 11 10 Mostly Cloudy SCT048 BKN060 86 63     46%   87 30.02 30.01      
Jun 02 12:53 E 6 10 Mostly Clear FEW002 85 65     51%   87 30.05 30.04      
Jun 02 11:53 E 8 10 Mostly Clear FEW032 83 67     59%   86 30.06 30.05      
Jun 02 10:53 9 10 Mostly Clear FEW024 81 68     65%   84 30.06 30.06      
Jun 02 09:53 E 7 10 Clear CLR 79 68     69%   80 30.07 30.06      
Jun 02 08:53 E 5 10 Clear CLR 75 66     74%   76 30.08 30.07      
Jun 02 07:53 E 5 10 Clear CLR 71 65     81%   72 30.08 30.07      
Jun 02 06:53 3 10 Clear CLR 67 65     93%     30.07 30.06      
Jun 02 05:53 3 10 Clear CLR 63 61     93%     30.05 30.04      
Jun 02 04:53 Calm 10 Clear CLR 64 62     93%     30.05 30.03      
Jun 02 03:53 Calm 9 Clear CLR 65 63     93%     30.04 30.03      
Jun 02 02:53 Calm 9 Clear CLR 66 64     93%     30.02 30.01      
Jun 02 01:53 Calm 6 Fog/Mist CLR 66 64     93%     30.02 30.01      
Jun 02 00:53 Calm 7 Clear CLR 66 64     93%     30.02 30.01     0
Jun 01 23:53 3 10 Clear CLR 68 65     90%     30.03 30.02      
Jun 01 22:53 6 10 Clear CLR 69 67     93%     30.04 30.03      
Jun 01 21:53 Calm 10 Clear CLR 68 66     93%     30.02 30.01   0  
Jun 01 20:53 Calm 10 Clear CLR 70 67     90%     30.01 30 0    
Jun 01 19:53 5 10 Light Rain FEW050 SCT090 BKN120 71 67     87%   72 29.99 29.98 0    
Jun 01 19:17 5 10 Light Rain FEW075 FEW090 OVC110 72 64     76%   72 30.01   0    
Jun 01 18:53 7 10 Partly Cloudy FEW080 SCT095 SCT120 71 64     79%   72 30.02 30.01 0   0
Jun 01 18:48 9 10 Mostly Cloudy FEW055 SCT080 BKN095 70 64     83%     30.02   0    
Jun 01 17:53   10 Thunderstorms BKN050 77 63     62%   77 30.03 30.02 0    
Jun 01 17:40 Calm 10 Thunderstorms BKN050 81 67     62%   83 30.01   0    
Jun 01 17:32 3 10 Mostly Cloudy BKN050 81 67     62%   83 30.01   0    
Jun 01 16:53 S 13 10 Partly Cloudy SCT047 83 66     57%   85 30.01 30 0    
Jun 01 15:53 6 10 Cloudy SCT042 BKN060 OVC110 84 65     53%   86 30.02 30.01      
Notice The following observation data may not be complete
Jun 01 15:01   10 Mostly Clear FEW002          %              
Jun 01 13:53 E 6 10 Clear CLR 85 66     53%   87 30.06 30.05      
Jun 01 12:53 NE 6 10 Clear CLR 84 67     57%   87 30.07 30.06      
Jun 01 11:53 Calm 10 Clear CLR 81 67     62%   83 30.08 30.07      
Jun 01 10:53 E 3 10 Clear CLR 78 68     71%   79 30.09 30.08      
Jun 01 09:53 E 3 10 Clear CLR 76 67     74%   77 30.1 30.09      
Jun 01 08:53 5 10 Clear CLR 75 67     76%   76 30.09 30.09      
Jun 01 07:53 Calm 10 Clear CLR 72 67     84%   73 30.08 30.07      
Jun 01 06:53 Calm 9 Clear CLR 68 66     93%     30.08 30.07 0   0
Jun 01 05:53 Calm 10 Clear CLR 66 64     93%     30.06 30.05      
Jun 01 04:53 Calm 10 Clear CLR 66 64     93%     30.05 30.04      
Jun 01 03:53 Calm 10 Clear CLR 66 64     93%     30.04 30.03      
Jun 01 02:53 Calm 10 Clear CLR 67 64     90%     30.04 30.03      
Jun 01 01:53 Calm 10 Clear CLR 67 64     90%     30.04 30.03      
Jun 01 00:53 Calm 10 Clear CLR 67 64     90%     30.05 30.04      
May 31 23:53 Calm 10 Clear CLR 68 65     90%     30.05 30.04      
May 31 22:53 Calm 10 Clear CLR 71 64     79%   72 30.05 30.04      
May 31 20:53 W 3 10 Clear CLR 74 65     74%   74 30.04 30.03      
May 31 19:53 W 6 10 Clear CLR 80 66     62%   82 30.03 30.02      
May 31 18:53 SW 8 10 Clear CLR 84 63     49%   85 30.01 30.01      
May 31 17:53 10 10 Clear CLR 85 64     50%   86 30.02 30.01      
May 31 16:53 9 10 Mostly Clear FEW047 86 65     50%   88 30.02 30.01      
May 31 15:53 7 10 Clear CLR 89 63     42%   90 30.02 30.01      
May 31 14:53   10 Mostly Clear FEW042 87 64     46%   88 30.04 30.03      
May 31 13:53 7 10 Clear CLR 85 66     53%   87 30.06 30.05      
May 31 12:53 S 10 10 Clear   84 66     55%   86 30.07 30.06      
May 31 10:53 7 10 Clear CLR 82 63     53%   83 30.09 30.08      
May 31 09:53 S 6 10 Clear CLR 76 64     67%   76 30.09 30.09      
May 31 08:53 S 6 10 Clear CLR 73 64     73%   73 30.1 30.09      
May 31 07:53 SSE 3 10 Clear CLR 69 63     81%     30.1 30.09      
May 31 06:53 Calm 10 Clear CLR 66 63     90%     30.08 30.07      
May 31 05:53 Calm 10 Clear CLR 61 59     93%     30.07 30.06      
May 31 04:53 Calm 10 Clear CLR 61 59     93%     30.07 30.06      
May 31 03:53 W 3 10 Clear CLR 61 59     93%     30.06 30.05      
May 31 02:53 Calm 10 Clear CLR 62 60     93%     30.06 30.05      
May 31 00:53 Calm 10 Clear CLR 63 61     93%     30.06 30.05      
May 30 23:53 S 3 10 Clear CLR 66 62     87%     30.06 30.05      
May 30 22:53 W 6 10 Clear CLR 66 63     90%     30.06 30.05      
May 30 21:53 6 10 Clear CLR 68 62     81%     30.04 30.03      
May 30 20:53 5 10 Clear CLR 69 61     75%     30.03 30.02      
May 30 19:53 SW 7 10 Clear CLR 73 62     68%   73 30.01 30      
May 30 18:53 SW 9 10 Clear CLR 73 62     68%   73 30.03 30.02     0
May 30 17:53 NW 6 10 Partly Cloudy SCT110 73 63     71%   73 30.04 30.03 0    
May 30 17:18 5 7 Light Rain FEW048 BKN080 OVC110 70 59     68%     30.04   0    
May 30 16:53   10 Partly Cloudy FEW049 SCT100 SCT120 79 63     58%   79 30.05 30.04      
May 30 16:49 W 11 10 Mostly Clear FEW100 FEW120 81 64     58%   82 30.04        
May 30 15:53 3 10 Clear CLR 83 62     49%   84 30.03 30.02   0  
May 30 14:53 W 6 10 Clear CLR 85 60     43%   85 30.03 30.02      
May 30 13:53 NW 8 10 Mostly Cloudy BKN095 84 62     48%   85 30.04 30.03 0    
May 30 13:48 7 10 Mostly Cloudy FEW002 BKN095 84 63     48%   85 30.05   0    
May 30 12:53 6 10 Partly Cloudy SCT085 87 59     39%   86 30.06 30.05 0   0
May 30 11:53 8 10 Partly Cloudy SCT090 84 59     43%   84 30.08 30.07      
May 30 10:53 5 10 Clear   81 62     53%   82 30.07 30.06 0    
May 30 09:53 S 6 10 Mostly Cloudy BKN080 76 62     62%   76 30.09 30.08 0 0  
May 30 08:53 6 10 Light Rain OVC085 73 64     73%   73 30.09 30.08 0    
May 30 08:23 3 10 Mostly Cloudy BKN090 74 61     64%   74 30.09        
May 30 08:08 S 5 10 Partly Cloudy SCT090 73 61     66%   73 30.07        
May 30 06:53 5 10 Clear CLR 69 64     84%     30.07 30.06      
May 30 05:53 W 6 10 Clear CLR 66 62     87%     30.07 30.06      
May 30 04:53 5 10 Clear CLR 67 62     84%     30.04 30.03      
May 30 03:53 W 5 10 Clear CLR 67 62     84%     30.02 30.01      
May 30 02:53 5 10 Clear CLR 68 62     81%     30.02 30.01      
May 30 01:53 7 10 Clear CLR 69 62     78%     30.02 30.01      
May 30 00:53 SW 3 10 Clear CLR 70 62     76%     30.02 30.01      
May 29 23:53 SW 6 10 Clear CLR 70 62     76%     30.02 30.01      
May 29 22:53 SW 6 10 Clear   71 63     76%   71 30.01 30      
May 29 20:53 6 10 Clear CLR 75 61     62%   75 29.98 29.98      
May 29 19:53 7 10 Clear CLR 79 60     52%   79 29.98 29.97      
May 29 18:53 SW 6 10 Clear CLR 84 57     40%   83 29.96 29.95      
May 29 17:53 SW 5 10 Clear CLR 86 55     35%   84 29.95 29.94      
May 29 16:53 W 7 10 Clear CLR 86 54     33%   84 29.96 29.95